Content
SEND FEEDBACK

Daily
Averages
Monthly
Summary
Switzerland

BERN, SWITZERLAND


Home > Europe > Switzerland
Elevation: 1673 feet     Latitude: 46 55N     Longitude: 007 30E

WEATHER
 
SELECT A DAY
Number of Records: 184,464;   Date Range: 7/1/96 - 10/19/14
 
SHARE

PRINT THIS DATA

[ ← Previous Day ]
WEATHER ALMANAC - MAY 4, 2013
[ Next Day → ]
[ °C ]   °F
Weather ElementAverageHighLow
Temperature51.8 °F59 °F (5:20 pm)46.4 °F (5:20 am)
Dewpoint47.4 °F50 °F (7:50 pm)44.6 °F (2:20 pm)
Humidity85.6 %100 % (5:20 am)63 % (2:20 pm)
Barometer30.10 in30.18 in (9:50 pm)30.04 in (12:50 am)
Wind Speed4.3 mph11.5 mph (1:20 pm)
Weather ElementAverage
Visibility6.2 mi
Wind DirectionESE (117.7 °)

Weather ElementTotal
Precipitation---
Heating Degree Days12.3 (Base 65)
Growing Degree Days2.7 (Base 50)
Averaged from 48 records on May 4, 2013
WEATHER CONDITIONS BREAKOUT
WIND DIRECTION BREAKOUT
WEATHER BY HOUR - MAY 4, 2013
[ °C ]   °F
Local TimeTemperatureDewpointHumidityBarometerVisibilityWind DirectionWind SpeedGust SpeedPrecipitationEventsConditions
12:50 AM48.2 °F46.4 °F93 %30.04 in6.2 miVariable2.3 mphRainLight Rain
1:20 AM48.2 °F46.4 °F93 %30.04 in6.2 miSSW (200°)4.6 mphOvercast
1:50 AM48.2 °F46.4 °F93 %30.04 in6.2 miSE (140°)3.5 mphRainLight Rain
2:20 AM48.2 °F46.4 °F93 %30.04 in6.2 miVariable3.5 mphMostly Cloudy
2:50 AM48.2 °F46.4 °F93 %30.04 in6.2 miSE (130°)5.8 mphOvercast
3:20 AM48.2 °F46.4 °F93 %30.04 in6.2 miVariable2.3 mphMostly Cloudy
3:50 AM48.2 °F46.4 °F93 %30.04 in6.2 miESE (120°)5.8 mphMostly Cloudy
4:20 AM48.2 °F46.4 °F93 %30.04 in6.2 miESE (110°)4.6 mphRainLight Rain
4:50 AM48.2 °F46.4 °F93 %30.04 in6.2 miVariable3.5 mphRainLight Rain
5:20 AM46.4 °F46.4 °F100 %30.04 in6.2 miESE (110°)2.3 mphRainLight Rain
5:37 AM46.4 °F46.4 °F100 %30.04 in6.2 miCalmLight Drizzle
5:50 AM46.4 °F46.4 °F100 %30.04 in6.2 miCalmLight Drizzle
6:20 AM46.4 °F46.4 °F100 %30.04 in6.2 miEast (90°)3.5 mphMostly Cloudy
6:50 AM46.4 °F46.4 °F100 %30.04 in6.2 miESE (110°)4.6 mphMostly Cloudy
7:20 AM46.4 °F46.4 °F100 %30.06 in6.2 miESE (110°)5.8 mphMostly Cloudy
7:50 AM48.2 °F46.4 °F93 %30.06 in6.2 miEast (100°)5.8 mphMostly Cloudy
8:20 AM48.2 °F46.4 °F93 %30.06 in6.2 miEast (100°)5.8 mphMostly Cloudy
8:50 AM50.0 °F48.2 °F94 %30.06 in6.2 miEast (100°)4.6 mphLight Drizzle
9:20 AM50.0 °F48.2 °F94 %30.09 in6.2 miEast (90°)4.6 mphLight Drizzle
9:50 AM50.0 °F48.2 °F94 %30.09 in6.2 miVariable3.5 mphRainLight Rain
10:20 AM51.8 °F48.2 °F88 %30.09 in6.2 miVariable3.5 mphRainLight Rain
10:50 AM51.8 °F48.2 °F88 %30.09 in6.2 miNNW (330°)5.8 mphLight Drizzle
11:20 AM53.6 °F48.2 °F82 %30.09 in6.2 miNW (320°)6.9 mphMostly Cloudy
11:50 AM53.6 °F48.2 °F82 %30.12 in6.2 miNW (310°)8.1 mphMostly Cloudy
12:20 PM53.6 °F46.4 °F77 %30.12 in6.2 miWest (280°)9.2 mphMostly Cloudy
12:50 PM55.4 °F46.4 °F72 %30.12 in6.2 miWest (270°)10.4 mphMostly Cloudy
1:20 PM55.4 °F46.4 °F72 %30.12 in6.2 miWest (280°)11.5 mphMostly Cloudy
1:50 PM55.4 °F46.4 °F72 %30.12 in6.2 miWSW (240°)10.4 mphMostly Cloudy
2:20 PM57.2 °F44.6 °F63 %30.12 in6.2 miWest (270°)9.2 mphMostly Cloudy
2:50 PM57.2 °F46.4 °F67 %30.12 in6.2 miWest (280°)6.9 mphRainLight Rain
3:20 PM57.2 °F48.2 °F72 %30.12 in6.2 miWNW (300°)6.9 mphMostly Cloudy
3:50 PM55.4 °F48.2 °F77 %30.12 in6.2 miWNW (300°)6.9 mphMostly Cloudy
4:20 PM57.2 °F46.4 °F67 %30.12 in6.2 miWSW (250°)4.6 mphMostly Cloudy
4:50 PM57.2 °F48.2 °F72 %30.12 in6.2 miVariable1.2 mphMostly Cloudy
5:20 PM59.0 °F46.4 °F63 %30.12 in6.2 miVariable1.2 mphMostly Cloudy
5:50 PM57.2 °F48.2 °F72 %30.12 in6.2 miVariable1.2 mphMostly Cloudy
6:20 PM57.2 °F48.2 °F72 %30.12 in6.2 miVariable2.3 mphMostly Cloudy
6:50 PM57.2 °F48.2 °F72 %30.15 in6.2 miESE (110°)2.3 mphMostly Cloudy
7:20 PM55.4 °F48.2 °F77 %30.15 in6.2 miVariable1.2 mphMostly Cloudy
7:50 PM55.4 °F50.0 °F82 %30.15 in6.2 miESE (120°)2.3 mphScattered Clouds
8:20 PM55.4 °F50.0 °F82 %30.15 in6.2 miENE (70°)1.2 mphMostly Cloudy
8:50 PM53.6 °F48.2 °F82 %30.15 in6.2 miNE (50°)5.8 mphMostly Cloudy
9:20 PM53.6 °F48.2 °F82 %30.15 in6.2 miSE (130°)2.3 mphMostly Cloudy
9:50 PM51.8 °F50.0 °F94 %30.18 in6.2 miEast (100°)2.3 mphLight Drizzle
10:20 PM51.8 °F50.0 °F94 %30.18 in6.2 miENE (60°)2.3 mphMostly Cloudy
10:50 PM51.8 °F50.0 °F94 %30.18 in6.2 miVariable1.2 mphOvercast
11:20 PM50.0 °F48.2 °F94 %30.18 in5.6 miVariable1.2 mphMostly Cloudy
11:50 PM48.2 °F46.4 °F93 %30.18 in5.6 miENE (70°)2.3 mphPartly Cloudy
Hourly data recorded from LSZB, located miles away from Bern, Switzerland







STORIES FROM OUR PARTNERS